Arklow Mill — EIJD9 — position and weather

sailwx.info

Track history (hours):
 
Tides and Currents Weather Stations Pressure Air Temp Water Temp Dewpoint Dewpoint Depression Visibility Wind Speed Wind Dir Waves Ship Positions

Arklow Mill

Last reported at 2014-Jul-24 06:33 UTC. Time now 2014-Jul-25 03:44 UTC.
Position N 49°28' E 000°40'.

Length 137 m; draft 8.4 m.

Type: Ship. MMSI: 250002022.

Date/timePositionNaut miles runAvg speedWind from/ knotsBaromVisibWave heightAir tempDewpointWater temp
2014-Jul-24 06:33N 49°28' E 000°40'1010.5
2014-Jul-24 05:33N 49°27' E 000°24'1313.0
2014-Jul-24 04:33N 49°26' E 000°04'6 5.5
2014-Jul-24 03:28N 49°28' W 000°05'0 0.0
2014-Jul-24 02:31N 49°28' W 000°05'0 0.0
2014-Jul-24 01:28N 49°28' W 000°05'0 0.0
2014-Jul-24 00:31N 49°28' W 000°05'0 0.0
2014-Jul-23 23:28N 49°28' W 000°05'0 0.0
2014-Jul-23 22:28N 49°28' W 000°05'1 1.2
2014-Jul-23 21:33N 49°29' W 000°06'1110.8
2014-Jul-23 20:33N 49°39' W 000°10'5012.5
2014-Jul-23 16:33N 50°29' E 000°04'1413.6
2014-Jul-23 15:33N 50°32' E 000°25'1414.3
2014-Jul-23 14:33N 50°38' E 000°45'1514.6
2014-Jul-23 13:33N 50°48' E 001°03'1414.2
2014-Jul-23 12:34N 50°57' E 001°20'1312.8
2014-Jul-23 11:33N 51°06' E 001°35'10 9.7
2014-Jul-23 10:33N 51°02' E 001°50'10 9.9
2014-Jul-23 09:33N 51°03' E 002°05'4 4.3
2014-Jul-23 08:31N 51°00' E 002°11'0 0.0
2014-Jul-23 07:24N 51°00' E 002°11'0 0.0
2014-Jul-23 06:30N 51°00' E 002°11'0 0.0
2014-Jul-23 05:24N 51°00' E 002°11'0 0.0
2014-Jul-23 04:12N 51°00' E 002°11'0 0.0
2014-Jul-23 03:33N 51°00' E 002°11'0 0.0
2014-Jul-23 02:15N 51°00' E 002°11'0 0.0
2014-Jul-23 01:24N 51°00' E 002°11'0 0.0
2014-Jul-23 00:21N 51°00' E 002°11'0 0.0
2014-Jul-22 23:28N 51°00' E 002°11'0 0.0
2014-Jul-22 22:10N 51°00' E 002°11'0 0.0
2014-Jul-22 21:33N 51°00' E 002°11'0 0.0
2014-Jul-22 20:21N 51°00' E 002°11'0 0.0
2014-Jul-22 19:30N 51°00' E 002°11'0 0.0
2014-Jul-22 18:31N 51°00' E 002°11'0 0.0
2014-Jul-22 17:27N 51°00' E 002°11'0 0.0
2014-Jul-22 16:25N 51°00' E 002°11'0 0.0
2014-Jul-22 15:33N 51°00' E 002°11'0 0.0
2014-Jul-22 14:33N 51°00' E 002°11'0 0.0
2014-Jul-22 13:27N 51°00' E 002°11'0 0.0
2014-Jul-22 12:33N 51°00' E 002°11'0 0.0
2014-Jul-22 11:27N 51°00' E 002°11'0 0.0
2014-Jul-22 10:27N 51°00' E 002°11'0 0.0
2014-Jul-22 09:33N 51°00' E 002°11'0 0.0
2014-Jul-22 08:34N 51°00' E 002°11'0 0.0
2014-Jul-22 07:31N 51°00' E 002°11'0 0.0
2014-Jul-22 06:34N 51°00' E 002°11'0 0.0
2014-Jul-22 05:34N 51°00' E 002°11'0 0.0
2014-Jul-22 04:27N 51°00' E 002°11'0 0.0
2014-Jul-22 03:33N 51°00' E 002°11'0 0.0
2014-Jul-22 02:31N 51°00' E 002°11'0 0.0
2014-Jul-22 01:27N 51°00' E 002°11'0 0.0
2014-Jul-22 00:27N 51°00' E 002°11'0 0.0
2014-Jul-21 23:33N 51°00' E 002°11'0 0.0
2014-Jul-21 22:34N 51°00' E 002°11'0 0.0
2014-Jul-21 21:33N 51°00' E 002°11'0 0.0
2014-Jul-21 20:34N 51°00' E 002°11'0 0.0
2014-Jul-21 20:10N 51°00' E 002°11'0 0.0
2014-Jul-21 19:16N 51°00' E 002°11'0 0.0
2014-Jul-21 18:33N 51°00' E 002°11'0 0.0
2014-Jul-21 17:30N 51°00' E 002°11'0 0.0
2014-Jul-21 16:33N 51°00' E 002°11'0 0.0
2014-Jul-21 15:27N 51°00' E 002°11'0 0.0
2014-Jul-21 14:09N 51°00' E 002°11'0 0.0
2014-Jul-21 13:27N 51°00' E 002°11'0 0.0
2014-Jul-21 12:34N 51°00' E 002°11'0 0.0
2014-Jul-21 11:33N 51°00' E 002°11'0 0.0
2014-Jul-21 10:27N 51°00' E 002°11'0 0.0
2014-Jul-21 09:33N 51°00' E 002°11'0 0.0
2014-Jul-21 08:25N 51°00' E 002°11'0 0.0
2014-Jul-21 07:33N 51°00' E 002°11'0 0.0
2014-Jul-21 06:33N 51°00' E 002°11'0 0.0
2014-Jul-21 05:33N 51°00' E 002°11'0 0.0
2014-Jul-21 04:34N 51°00' E 002°11'0 0.0
2014-Jul-21 03:33N 51°00' E 002°11'0 0.0
2014-Jul-21 02:33N 51°00' E 002°11'0 0.0
2014-Jul-21 01:30N 51°00' E 002°11'0 0.0
2014-Jul-21 00:19N 51°00' E 002°11'0 0.0
2014-Jul-20 23:33N 51°00' E 002°11'0 0.0
2014-Jul-20 22:33N 51°00' E 002°11'0 0.0
2014-Jul-20 21:24N 51°00' E 002°11'0 0.0
2014-Jul-20 20:30N 51°00' E 002°11'0 0.0
2014-Jul-20 19:34N 51°00' E 002°11'0 0.0
2014-Jul-20 18:33N 51°00' E 002°11'0 0.0
2014-Jul-20 17:33N 51°00' E 002°11'0 0.0
2014-Jul-20 16:27N 51°00' E 002°11'0 0.0
2014-Jul-20 15:33N 51°00' E 002°11'0 0.0
2014-Jul-20 14:30N 51°00' E 002°11'0 0.0
2014-Jul-20 13:25N 51°00' E 002°11'0 0.0
2014-Jul-20 12:30N 51°00' E 002°11'0 0.0
2014-Jul-20 11:13N 51°00' E 002°11'0 0.0
2014-Jul-20 10:19N 51°00' E 002°11'0 0.0
2014-Jul-20 09:30N 51°00' E 002°11'0 0.0
2014-Jul-20 08:31N 51°00' E 002°11'0 0.0
2014-Jul-20 07:30N 51°00' E 002°11'0 0.0
2014-Jul-20 06:33N 51°00' E 002°11'0 0.0
2014-Jul-20 05:25N 51°00' E 002°11'0 0.0
2014-Jul-20 04:33N 51°00' E 002°11'0 0.0
2014-Jul-20 03:33N 51°00' E 002°11'0 0.0
2014-Jul-20 02:32N 51°00' E 002°11'0 0.0
2014-Jul-20 01:24N 51°00' E 002°11'0 0.0
2014-Jul-20 00:31N 51°00' E 002°11'0 0.0
2014-Jul-19 23:32N 51°00' E 002°11'0 0.0
2014-Jul-19 21:29N 51°00' E 002°11'0 0.0
2014-Jul-19 20:32N 51°00' E 002°11'0 0.0
2014-Jul-19 19:32N 51°00' E 002°11'0 0.0
2014-Jul-19 18:31N 51°00' E 002°11'0 0.0
2014-Jul-19 17:25N 51°00' E 002°11'5 5.4
2014-Jul-19 16:33N 51°03' E 002°05'1211.0
2014-Jul-19 15:28N 51°02' E 001°46'8 8.4
2014-Jul-19 14:33N 50°59' E 001°35'3210.4
2014-Jul-19 11:32N 50°33' E 001°06'1110.7
2014-Jul-19 10:33N 50°27' E 000°52'1110.9
2014-Jul-19 09:33N 50°24' E 000°35'1210.7
2014-Jul-19 08:26N 50°21' E 000°18'4310.9
2014-Jul-19 04:32N 50°09' W 000°46'32610.9
2014-Jul-17 22:33N 51°05' W 009°12'1212.1
2014-Jul-17 21:33N 51°10' W 009°30'1212.0
2014-Jul-17 20:33N 51°16' W 009°46'1212.4
2014-Jul-17 19:33N 51°23' W 010°02'1312.1
2014-Jul-17 18:32N 51°32' W 010°18'39 9.9
2014-Jul-17 14:33N 52°08' W 010°43'1211.8
2014-Jul-17 13:32N 52°15' W 010°27'1211.8
2014-Jul-17 12:33N 52°21' W 010°11'1511.9
2014-Jul-17 11:19N 52°30' W 009°52'  
Track history (hours):
 
Tides and Currents Weather Stations Pressure Air Temp Water Temp Dewpoint Dewpoint Depression Visibility Wind Speed Wind Dir Waves Ship Positions

Arklow Mill

Last reported at 2014-Jul-24 06:33 UTC. Time now 2014-Jul-25 03:44 UTC.
Position N 49°28' E 000°40'.

Length 137 m; draft 8.4 m.

Type: Ship. MMSI: 250002022.

Date/timePositionNaut miles runAvg speedWind from/ knotsBaromVisibWave heightAir tempDewpointWater temp
2014-Jul-24 06:33N 49°28' E 000°40'1010.5
2014-Jul-24 05:33N 49°27' E 000°24'1313.0
2014-Jul-24 04:33N 49°26' E 000°04'6 5.5
2014-Jul-24 03:28N 49°28' W 000°05'0 0.0
2014-Jul-24 02:31N 49°28' W 000°05'0 0.0
2014-Jul-24 01:28N 49°28' W 000°05'0 0.0
2014-Jul-24 00:31N 49°28' W 000°05'0 0.0
2014-Jul-23 23:28N 49°28' W 000°05'0 0.0
2014-Jul-23 22:28N 49°28' W 000°05'1 1.2
2014-Jul-23 21:33N 49°29' W 000°06'1110.8
2014-Jul-23 20:33N 49°39' W 000°10'5012.5
2014-Jul-23 16:33N 50°29' E 000°04'1413.6
2014-Jul-23 15:33N 50°32' E 000°25'1414.3
2014-Jul-23 14:33N 50°38' E 000°45'1514.6
2014-Jul-23 13:33N 50°48' E 001°03'1414.2
2014-Jul-23 12:34N 50°57' E 001°20'1312.8
2014-Jul-23 11:33N 51°06' E 001°35'10 9.7
2014-Jul-23 10:33N 51°02' E 001°50'10 9.9
2014-Jul-23 09:33N 51°03' E 002°05'4 4.3
2014-Jul-23 08:31N 51°00' E 002°11'0 0.0
2014-Jul-23 07:24N 51°00' E 002°11'0 0.0
2014-Jul-23 06:30N 51°00' E 002°11'0 0.0
2014-Jul-23 05:24N 51°00' E 002°11'0 0.0
2014-Jul-23 04:12N 51°00' E 002°11'0 0.0
2014-Jul-23 03:33N 51°00' E 002°11'0 0.0
2014-Jul-23 02:15N 51°00' E 002°11'0 0.0
2014-Jul-23 01:24N 51°00' E 002°11'0 0.0
2014-Jul-23 00:21N 51°00' E 002°11'0 0.0
2014-Jul-22 23:28N 51°00' E 002°11'0 0.0
2014-Jul-22 22:10N 51°00' E 002°11'0 0.0
2014-Jul-22 21:33N 51°00' E 002°11'0 0.0
2014-Jul-22 20:21N 51°00' E 002°11'0 0.0
2014-Jul-22 19:30N 51°00' E 002°11'0 0.0
2014-Jul-22 18:31N 51°00' E 002°11'0 0.0
2014-Jul-22 17:27N 51°00' E 002°11'0 0.0
2014-Jul-22 16:25N 51°00' E 002°11'0 0.0
2014-Jul-22 15:33N 51°00' E 002°11'0 0.0
2014-Jul-22 14:33N 51°00' E 002°11'0 0.0
2014-Jul-22 13:27N 51°00' E 002°11'0 0.0
2014-Jul-22 12:33N 51°00' E 002°11'0 0.0
2014-Jul-22 11:27N 51°00' E 002°11'0 0.0
2014-Jul-22 10:27N 51°00' E 002°11'0 0.0
2014-Jul-22 09:33N 51°00' E 002°11'0 0.0
2014-Jul-22 08:34N 51°00' E 002°11'0 0.0
2014-Jul-22 07:31N 51°00' E 002°11'0 0.0
2014-Jul-22 06:34N 51°00' E 002°11'0 0.0
2014-Jul-22 05:34N 51°00' E 002°11'0 0.0
2014-Jul-22 04:27N 51°00' E 002°11'0 0.0
2014-Jul-22 03:33N 51°00' E 002°11'0 0.0
2014-Jul-22 02:31N 51°00' E 002°11'0 0.0
2014-Jul-22 01:27N 51°00' E 002°11'0 0.0
2014-Jul-22 00:27N 51°00' E 002°11'0 0.0
2014-Jul-21 23:33N 51°00' E 002°11'0 0.0
2014-Jul-21 22:34N 51°00' E 002°11'0 0.0
2014-Jul-21 21:33N 51°00' E 002°11'0 0.0
2014-Jul-21 20:34N 51°00' E 002°11'0 0.0
2014-Jul-21 20:10N 51°00' E 002°11'0 0.0
2014-Jul-21 19:16N 51°00' E 002°11'0 0.0
2014-Jul-21 18:33N 51°00' E 002°11'0 0.0
2014-Jul-21 17:30N 51°00' E 002°11'0 0.0
2014-Jul-21 16:33N 51°00' E 002°11'0 0.0
2014-Jul-21 15:27N 51°00' E 002°11'0 0.0
2014-Jul-21 14:09N 51°00' E 002°11'0 0.0
2014-Jul-21 13:27N 51°00' E 002°11'0 0.0
2014-Jul-21 12:34N 51°00' E 002°11'0 0.0
2014-Jul-21 11:33N 51°00' E 002°11'0 0.0
2014-Jul-21 10:27N 51°00' E 002°11'0 0.0
2014-Jul-21 09:33N 51°00' E 002°11'0 0.0
2014-Jul-21 08:25N 51°00' E 002°11'0 0.0
2014-Jul-21 07:33N 51°00' E 002°11'0 0.0
2014-Jul-21 06:33N 51°00' E 002°11'0 0.0
2014-Jul-21 05:33N 51°00' E 002°11'0 0.0
2014-Jul-21 04:34N 51°00' E 002°11'0 0.0
2014-Jul-21 03:33N 51°00' E 002°11'0 0.0
2014-Jul-21 02:33N 51°00' E 002°11'0 0.0
2014-Jul-21 01:30N 51°00' E 002°11'0 0.0
2014-Jul-21 00:19N 51°00' E 002°11'0 0.0
2014-Jul-20 23:33N 51°00' E 002°11'0 0.0
2014-Jul-20 22:33N 51°00' E 002°11'0 0.0
2014-Jul-20 21:24N 51°00' E 002°11'0 0.0
2014-Jul-20 20:30N 51°00' E 002°11'0 0.0
2014-Jul-20 19:34N 51°00' E 002°11'0 0.0
2014-Jul-20 18:33N 51°00' E 002°11'0 0.0
2014-Jul-20 17:33N 51°00' E 002°11'0 0.0
2014-Jul-20 16:27N 51°00' E 002°11'0 0.0
2014-Jul-20 15:33N 51°00' E 002°11'0 0.0
2014-Jul-20 14:30N 51°00' E 002°11'0 0.0
2014-Jul-20 13:25N 51°00' E 002°11'0 0.0
2014-Jul-20 12:30N 51°00' E 002°11'0 0.0
2014-Jul-20 11:13N 51°00' E 002°11'0 0.0
2014-Jul-20 10:19N 51°00' E 002°11'0 0.0
2014-Jul-20 09:30N 51°00' E 002°11'0 0.0
2014-Jul-20 08:31N 51°00' E 002°11'0 0.0
2014-Jul-20 07:30N 51°00' E 002°11'0 0.0
2014-Jul-20 06:33N 51°00' E 002°11'0 0.0
2014-Jul-20 05:25N 51°00' E 002°11'0 0.0
2014-Jul-20 04:33N 51°00' E 002°11'0 0.0
2014-Jul-20 03:33N 51°00' E 002°11'0 0.0
2014-Jul-20 02:32N 51°00' E 002°11'0 0.0
2014-Jul-20 01:24N 51°00' E 002°11'0 0.0
2014-Jul-20 00:31N 51°00' E 002°11'0 0.0
2014-Jul-19 23:32N 51°00' E 002°11'0 0.0
2014-Jul-19 21:29N 51°00' E 002°11'0 0.0
2014-Jul-19 20:32N 51°00' E 002°11'0 0.0
2014-Jul-19 19:32N 51°00' E 002°11'0 0.0
2014-Jul-19 18:31N 51°00' E 002°11'0 0.0
2014-Jul-19 17:25N 51°00' E 002°11'5 5.4
2014-Jul-19 16:33N 51°03' E 002°05'1211.0
2014-Jul-19 15:28N 51°02' E 001°46'8 8.4
2014-Jul-19 14:33N 50°59' E 001°35'3210.4
2014-Jul-19 11:32N 50°33' E 001°06'1110.7
2014-Jul-19 10:33N 50°27' E 000°52'1110.9
2014-Jul-19 09:33N 50°24' E 000°35'1210.7
2014-Jul-19 08:26N 50°21' E 000°18'4310.9
2014-Jul-19 04:32N 50°09' W 000°46'32610.9
2014-Jul-17 22:33N 51°05' W 009°12'1212.1
2014-Jul-17 21:33N 51°10' W 009°30'1212.0
2014-Jul-17 20:33N 51°16' W 009°46'1212.4
2014-Jul-17 19:33N 51°23' W 010°02'1312.1
2014-Jul-17 18:32N 51°32' W 010°18'39 9.9
2014-Jul-17 14:33N 52°08' W 010°43'1211.8
2014-Jul-17 13:32N 52°15' W 010°27'1211.8
2014-Jul-17 12:33N 52°21' W 010°11'1511.9
2014-Jul-17 11:19N 52°30' W 009°52'  

Dump ship's entire track history